[[{"header":{"parameterUnit":"m.s-1","parameterCategory":1,"la1":30.2991,"la2":30.254,"lo1":-89.0895,"lo2":-89.0444,"dy":0.0017,"dx":0.0017,"nx":28,"ny":28,"refTime":"2024-04-08T21:00:00:Z","depth":0,"parameterNumber":2,"parameterNumberName":"U-component_of_WINDS"},"data":[0,0,0,0,0,0,0,0,0,0,0,0,0,0,0,0,0,0,0,0,0,0,0,0,0,0,0,0,0,0,0,0,0,0,0,0,0,0,0,0,0,0,0,0,0,0,0,0,0,0,0,0,0,0,0,0,0,0,-8.0681,-8.0682,0,-8.0754,-8.0755,-8.0756,-8.067,-8.0667,-8.0664,-8.0661,-8.0729,-8.0734,-8.0739,0,0,0,0,0,0,0,0,0,0,0,0,0,-8.0463,-8.0467,-8.0681,-8.0682,-8.0683,-8.0754,-8.0755,-8.0756,-8.0671,-8.0667,-8.0663,-8.066,-8.0728,-8.0733,-8.0739,0,0,0,0,0,0,0,0,0,0,0,0,0,-8.0549,-8.0469,-8.0681,-8.0649,-8.0647,-8.0754,-8.0755,-8.0756,-8.0672,-8.0667,-8.0662,-8.0658,-8.0726,-8.0733,-8.074,-8.0879,0,0,-8.0762,-8.0765,0,0,0,0,0,0,0,0,-8.0544,-8.0557,-8.0653,-8.0652,-8.0649,-8.0698,-8.0703,-8.0797,-8.0673,-8.0662,-8.0661,-8.0656,-8.0722,-8.0729,-8.0753,-8.0882,-8.0885,-8.0762,-8.0767,-8.077,-8.0772,0,0,0,0,0,0,0,-8.0538,-8.0553,-8.071,-8.0654,-8.0652,-8.063,-8.0637,-8.072,-8.0718,-8.0663,-8.0657,-8.0667,-8.072,-8.0747,-8.0754,-8.0886,-8.0762,-8.0768,-8.0773,-8.0776,-8.1131,-8.1136,0,0,0,0,0,0,-8.0537,-8.0549,-8.0707,-8.0712,-8.0584,-8.0637,-8.0645,-8.0687,-8.0717,-8.0717,-8.0671,-8.0663,-8.0737,-8.0746,-8.0756,-8.0919,-8.077,-8.0776,-8.078,-8.1126,-8.1132,-8.1138,0,0,0,0,0,0,-8.0532,-8.0552,-8.0704,-8.0629,-8.0647,-8.0646,-8.0694,-8.0691,-8.0717,-8.0723,-8.0721,-8.0699,-8.0733,-8.0746,-8.0849,-8.092,-8.0779,-8.0786,-8.112,-8.1128,-8.1135,-8.1246,0,0,0,0,0,0,-8.0526,-8.055,-8.0604,-8.0631,-8.0651,-8.0798,-8.0699,-8.0696,-8.0731,-8.0721,-8.0748,-8.0748,-8.0731,-8.0839,-8.0856,-8.0927,-8.0792,-8.1114,-8.1124,-8.1133,-8.1236,-8.1257,-8.1275,0,0,0,0,0,-8.0519,-8.0631,-8.0607,-8.0627,-8.0719,-8.0802,-8.0813,-8.0792,-8.0737,-8.079,-8.0794,-8.0747,-8.0911,-8.085,-8.0869,-8.0943,-8.1109,-8.1121,-8.1132,-8.1228,-8.1253,-8.1274,0,0,0,0,0,0,-8.061,-8.0634,-8.0608,-8.0733,-8.0767,-8.0787,-8.0853,-8.082,-8.0868,-8.0856,-8.0827,-8.0834,-8.0943,-8.0954,-8.0886,-8.1079,-8.1,-8.1016,-8.1067,-8.1091,-8.111,-8.1102,-8.0797,0,0,0,0,0,-8.0645,-8.0713,-8.073,-8.0838,-8.0857,-8.0853,-8.0889,-8.087,-8.0903,-8.0916,-8.0927,-8.0959,-8.1017,-8.1055,-8.111,-8.124,-8.1243,-8.13,-8.132,-8.1335,-8.1347,-8.1415,-8.144,-8.1176,-8.1176,-8.1176,0,0,-8.0717,-8.0739,-8.0783,-8.0857,-8.0881,-8.095,-8.0865,-8.0941,-8.0991,-8.0926,-8.1023,-8.1034,-8.1067,-8.1184,-8.1236,-8.1197,-8.1422,-8.135,-8.1363,-8.1366,-8.143,-8.1455,-8.1477,-8.1184,-8.1183,-8.1181,0,0,-8.0882,-8.0908,-8.1,-8.1027,-8.1065,-8.1062,-8.1085,-8.1112,-8.1117,-8.1215,-8.1168,-8.1227,-8.1329,-8.1354,-8.138,-8.156,-8.1517,-8.1579,-8.1676,-8.1743,-8.1763,-8.1781,-8.1842,-8.1864,-8.1592,-8.1592,-8.1592,0,-8.0965,-8.1069,-8.1051,-8.1131,-8.1164,-8.1113,-8.1205,-8.1231,-8.1285,-8.1308,-8.1264,-8.1391,-8.141,-8.1531,-8.1575,-8.16,-8.1622,-8.1572,-8.1763,-8.1781,-8.1797,-8.1854,-8.1877,-8.1599,-8.1598,-8.1598,-8.1597,0,-8.1168,-8.1241,-8.1311,-8.1366,-8.1408,-8.1493,-8.1486,-8.1531,-8.1511,-8.1512,-8.1612,-8.1635,-8.1692,-8.1721,-8.1701,-8.1839,-8.1813,-8.1768,-8.1686,-8.1829,-8.1882,-8.1904,-8.1609,-8.1606,-8.1604,-8.1603,0,0,-8.1386,-8.1434,-8.1459,-8.1483,-8.1524,-8.1579,-8.1663,-8.1721,-8.1758,-8.1799,-8.1865,-8.1955,-8.1913,-8.1943,-8.1926,-8.1986,-8.2122,-8.1932,-8.1932,-8.1962,-8.2273,-8.2303,-8.2329,-8.2098,-8.2102,-8.2106,-8.2268,0,-8.1548,-8.1694,-8.1682,-8.1819,-8.1885,-8.184,-8.1913,-8.1945,-8.195,-8.2005,-8.2009,-8.2072,-8.2014,-8.2031,-8.2089,-8.2094,-8.2183,-8.2083,-8.2156,-8.2159,-8.2143,-8.2357,-8.2389,-8.2541,-8.2289,-8.2293,-8.2296,0,-8.1755,-8.1805,-8.195,-8.1982,-8.2009,-8.2074,-8.2127,-8.2182,-8.2217,-8.2216,-8.2253,-8.2226,-8.2308,-8.2232,-8.2343,-8.2275,-8.2305,-8.2313,-8.2318,-8.2319,-8.2231,-8.2359,-8.259,-8.2611,-8.2329,-8.2326,-8.2324,0,-8.1895,-8.1999,-8.2098,-8.2121,-8.2161,-8.2208,-8.2227,-8.2258,-8.2294,-8.2341,-8.2364,-8.2419,-8.2448,-8.2491,-8.2479,-8.2425,-8.2593,-8.2515,-8.2591,-8.2591,-8.2622,-8.2619,-8.2856,-8.2652,-8.2652,-8.2651,-8.2651,0,-8.2074,-8.2163,-8.2161,-8.2221,-8.232,-8.2306,-8.2403,-8.2416,-8.2445,-8.2505,-8.2472,-8.2529,-8.2513,-8.257,-8.2563,-8.2654,-8.2669,-8.2668,-8.2664,-8.2668,-8.2667,-8.2682,-8.2669,-8.2658,-8.2656,-8.2655,-8.2654,0,-8.2242,-8.2246,-8.235,-8.2382,-8.2392,-8.2463,-8.2488,-8.2545,-8.255,-8.2627,-8.2644,-8.265,-8.2715,-8.271,-8.2783,-8.2778,-8.289,-8.2876,-8.2878,-8.2873,-8.2947,-8.2938,-8.3197,-8.3229,-8.3009,-8.3012,-8.3013,0,-8.2353,-8.2421,-8.2462,-8.2501,-8.2524,-8.2588,-8.2626,-8.2616,-8.2656,-8.2703,-8.2753,-8.2816,-8.2865,-8.2971,-8.298,-8.3036,-8.3019,-8.3107,-8.3027,-8.3029,-8.3015,-8.3009,-8.3014,-8.312,-8.3122,-8.3124,-8.3126,0,-8.2549,-8.2548,-8.2605,-8.2664,-8.271,-8.2755,-8.2796,-8.283,-8.2824,-8.2872,-8.2939,-8.2978,-8.3054,-8.3115,-8.3169,-8.3185,-8.3154,-8.3153,-8.3172,-8.3173,-8.317,-8.3168,-8.2915,-8.3145,-8.3143,-8.3141,-8.314,-8.314,-8.2688,-8.2746,-8.2784,-8.2849,-8.288,-8.2919,-8.2974,-8.2987,-8.3044,-8.3105,-8.3097,-8.3172,-8.3206,-8.3276,-8.3299,-8.3356,-8.3324,-8.3353,-8.3359,-8.3365,-8.3372,-8.3167,-8.3366,-8.3365,-8.3365,-8.3365,-8.3364,0,-8.2878,-8.2901,-8.2962,-8.3021,-8.3072,-8.3044,-8.3088,-8.3131,-8.3199,-8.3235,-8.3285,-8.3363,-8.3423,-8.344,-8.3497,-8.354,-8.3526,-8.3554,-8.3548,-8.3552,-8.3399,-8.3374,-8.3564,-8.3564,-8.3564,-8.3564,-8.3564,-8.3564,-8.2982,-8.3077,-8.3082,-8.3192,-8.3214,-8.3289,-8.3316,-8.3352,-8.3381,-8.347,-8.3521,-8.3533,-8.3561,-8.3621,-8.3674,-8.3677,-8.3698,-8.3731,-8.3728,-8.3583,-8.3563,-8.3543,-8.3519,-8.3737,-8.3737,-8.3875,-8.3876,-8.3877]},{"header":{"parameterUnit":"m.s-1","parameterCategory":1,"la1":30.2991,"la2":30.254,"lo1":-89.0895,"lo2":-89.0444,"dy":0.0017,"dx":0.0017,"nx":28,"ny":28,"refTime":"2024-04-08T21:00:00:Z","depth":0,"parameterNumber":3,"parameterNumberName":"V-component_of_WINDS"},"data":[0,0,0,0,0,0,0,0,0,0,0,0,0,0,0,0,0,0,0,0,0,0,0,0,0,0,0,0,0,0,0,0,0,0,0,0,0,0,0,0,0,0,0,0,0,0,0,0,0,0,0,0,0,0,0,0,0,0,3.5796,3.5796,0,3.5848,3.5848,3.5849,3.5865,3.5865,3.5864,3.5864,3.5913,3.5915,3.5916,0,0,0,0,0,0,0,0,0,0,0,0,0,3.5708,3.5709,3.5796,3.5796,3.5797,3.5848,3.5848,3.5849,3.5865,3.5865,3.5864,3.5864,3.5913,3.5914,3.5916,0,0,0,0,0,0,0,0,0,0,0,0,0,3.5751,3.571,3.5796,3.5811,3.5813,3.5847,3.5848,3.5849,3.5865,3.5865,3.5864,3.5864,3.5912,3.5914,3.5917,3.5938,0,0,3.5924,3.5925,0,0,0,0,0,0,0,0,3.5749,3.5755,3.5808,3.581,3.5812,3.585,3.5835,3.5879,3.5865,3.5845,3.5864,3.5864,3.5892,3.5896,3.5906,3.594,3.5942,3.5924,3.5925,3.5926,3.5927,0,0,0,0,0,0,0,3.5746,3.5752,3.5816,3.5809,3.5811,3.5815,3.5821,3.5844,3.587,3.5847,3.5848,3.5854,3.5893,3.5904,3.5908,3.5943,3.5924,3.5926,3.5927,3.5928,3.5999,3.5999,0,0,0,0,0,0,3.5741,3.575,3.5814,3.5818,3.5779,3.5817,3.5823,3.5838,3.587,3.5874,3.5855,3.5855,3.59,3.5905,3.5909,3.5937,3.5926,3.5928,3.593,3.5998,3.5999,3.5999,0,0,0,0,0,0,3.5739,3.5746,3.5812,3.5784,3.5793,3.5819,3.5835,3.5839,3.585,3.5876,3.588,3.5861,3.59,3.5906,3.5931,3.5939,3.5929,3.5931,3.5998,3.5999,3.5999,3.5993,0,0,0,0,0,0,3.5736,3.5746,3.5754,3.5784,3.5794,3.5834,3.5835,3.584,3.5855,3.5855,3.5883,3.5887,3.59,3.5928,3.5934,3.5942,3.5933,3.5997,3.5998,3.5999,3.5993,3.5994,3.5994,0,0,0,0,0,3.5733,3.5749,3.5755,3.5762,3.5806,3.5835,3.584,3.5856,3.5855,3.5864,3.5881,3.5886,3.5938,3.593,3.5937,3.5946,3.5997,3.5998,3.5999,3.5992,3.5993,3.5994,0,0,0,0,0,0,3.5717,3.5753,3.576,3.5786,3.5808,3.5837,3.5849,3.5857,3.5877,3.5877,3.5895,3.5901,3.5926,3.5939,3.593,3.597,3.5967,3.597,3.596,3.5961,3.5962,3.5958,3.5935,0,0,0,0,0,3.5717,3.5739,3.5768,3.5789,3.58,3.5822,3.5835,3.5847,3.5868,3.5877,3.5895,3.5916,3.5937,3.595,3.597,3.5995,3.6001,3.6005,3.6006,3.6006,3.6008,3.6023,3.6025,3.6003,3.6003,3.6003,0,0,3.5716,3.5739,3.5751,3.5786,3.5804,3.5825,3.583,3.5851,3.5867,3.588,3.5905,3.592,3.5944,3.5969,3.5981,3.5981,3.6016,3.6008,3.6008,3.601,3.6025,3.6027,3.6028,3.6004,3.6004,3.6004,0,0,3.5726,3.5745,3.5765,3.5784,3.5812,3.5827,3.5832,3.5861,3.5872,3.5898,3.5909,3.5928,3.5963,3.598,3.5993,3.6012,3.6018,3.6019,3.6022,3.6037,3.6039,3.604,3.6047,3.605,3.602,3.602,3.602,0,3.5721,3.5755,3.5774,3.5796,3.5812,3.5827,3.5847,3.5864,3.5896,3.5906,3.5905,3.5952,3.5969,3.5999,3.6004,3.6014,3.602,3.6015,3.6037,3.6039,3.6041,3.6048,3.605,3.602,3.602,3.602,3.602,0,3.5748,3.5771,3.5784,3.5817,3.5834,3.5855,3.5877,3.5892,3.5902,3.5918,3.5945,3.5966,3.5992,3.6,3.6009,3.6032,3.6031,3.6034,3.6032,3.6042,3.6049,3.6052,3.602,3.602,3.602,3.602,0,0,3.5747,3.5793,3.5798,3.5814,3.5846,3.5864,3.5886,3.5913,3.5926,3.5948,3.5967,3.5998,3.6001,3.6016,3.6028,3.604,3.6055,3.6042,3.6042,3.6043,3.6082,3.608,3.6083,3.606,3.6061,3.6061,3.608,0,3.5761,3.5803,3.5822,3.5854,3.5876,3.5892,3.5911,3.5933,3.5949,3.5969,3.5986,3.6008,3.601,3.602,3.6033,3.605,3.6063,3.6049,3.6077,3.6078,3.607,3.6087,3.6084,3.6101,3.6083,3.6084,3.6084,0,3.5783,3.5808,3.5843,3.5875,3.5885,3.5902,3.5929,3.5949,3.5974,3.5985,3.6003,3.6015,3.6038,3.6035,3.6068,3.6058,3.6071,3.6081,3.6082,3.6085,3.6081,3.6089,3.6107,3.6109,3.6088,3.6088,3.6088,0,3.5779,3.5821,3.5848,3.5862,3.59,3.5911,3.5927,3.5953,3.5969,3.5992,3.6003,3.6028,3.6042,3.6061,3.6079,3.6075,3.611,3.6108,3.6119,3.6118,3.6124,3.6124,3.6144,3.6133,3.6133,3.6133,3.6133,0,3.5793,3.5814,3.5848,3.5864,3.5888,3.591,3.5933,3.595,3.5973,3.5993,3.6008,3.6026,3.6049,3.607,3.6084,3.6109,3.6115,3.6123,3.6127,3.6122,3.6121,3.613,3.6129,3.6134,3.6134,3.6133,3.6133,0,3.5793,3.5816,3.5847,3.5881,3.5891,3.5907,3.5936,3.5952,3.597,3.5995,3.6002,3.6028,3.6054,3.6074,3.6106,3.6116,3.6142,3.6146,3.6134,3.6136,3.6145,3.6144,3.6171,3.6176,3.6162,3.6163,3.6163,0,3.58,3.5817,3.5854,3.5869,3.5886,3.591,3.5927,3.5949,3.5966,3.5998,3.601,3.6037,3.606,3.61,3.6121,3.6147,3.6151,3.6159,3.6155,3.615,3.6151,3.615,3.6152,3.6159,3.6159,3.6159,3.6159,0,3.581,3.5821,3.5846,3.5875,3.5895,3.5919,3.5943,3.5954,3.5981,3.5999,3.6027,3.6044,3.6079,3.6106,3.6134,3.6149,3.6159,3.6161,3.6165,3.6159,3.6152,3.6156,3.6135,3.616,3.616,3.616,3.616,3.616,3.5813,3.583,3.5859,3.5886,3.5907,3.593,3.5948,3.5968,3.5992,3.6023,3.6035,3.6063,3.6089,3.6128,3.6144,3.6166,3.6167,3.6172,3.6173,3.6174,3.6174,3.6149,3.6171,3.6171,3.6171,3.6171,3.6171,0,3.5824,3.5845,3.587,3.5904,3.5926,3.5935,3.5962,3.5979,3.6005,3.6029,3.6052,3.6084,3.611,3.6135,3.6162,3.6175,3.618,3.6181,3.618,3.6184,3.6171,3.6166,3.6177,3.6177,3.6177,3.6177,3.6177,3.6177,3.5832,3.5861,3.5876,3.5916,3.5936,3.5965,3.598,3.6001,3.6021,3.6056,3.6079,3.6095,3.612,3.615,3.6174,3.6181,3.619,3.619,3.6198,3.6185,3.6184,3.6184,3.6178,3.6192,3.6192,3.6208,3.6208,3.6208]}]]